SCP
1 1 1 1 1 0 0 0 0 0 0 0 0 0 0 0 0 0 0 0 0 1 1 1 1 1 1 0 0 0 0 0 0 0 0 0 1 1 1 1 1 1 0 0 0 0 0 1 1
1 1 1 1 1 0 0 0 0 0 0 0 0 0 0 0 0 0 0 0 1 1 1 1 1 1 1 1 1 0 0 0 0 0 0 0 1 1 1 1 1 1 0 0 0 0 0 0 0
1 1 1 1 0 0 0 0 0 0 0 0 0 0 0 0 1 1 1 1 1 1 1 1 1 1 1 1 1 1 0 0 0 1 1 1 1 1 1 1 1 0 0 0 0 0 0 0 0
1 1 1 1 0 0 0 0 0 0 0 0 0 0 1 1 1 1 1 1 1 1 1 1 1 1 1 1 1 1 0 0 0 1 1 1 1 1 1 1 0 0 0 0 0 0 0 0 0
1 1 1 1 1 1 1 0 0 0 0 0 0 0 1 1 1 1 1 1 1 2 2 2 1 1 1 1 1 1 0 0 1 1 1 1 1 1 1 1 1 1 0 0 0 0 0 0 0
1 1 0 1 1 1 1 0 0 0 0 0 0 0 1 1 1 1 1 1 1 2 2 2 2 1 1 1 1 1 1 1 1 1 1 1 1 1 1 1 1 1 1 1 1 0 0 0 0
1 0 0 1 1 1 1 0 0 0 0 0 0 0 1 1 1 1 1 1 1 2 2 2 1 1 1 1 1 1 1 1 1 1 2 1 1 1 1 1 1 1 1 1 1 0 0 0 0
0 0 0 0 1 1 1 0 0 0 0 0 0 0 1 1 1 1 1 1 1 2 2 2 1 1 1 1 1 1 1 1 2 2 2 2 1 1 1 1 1 1 1 1 1 1 0 0 0
0 0 0 1 1 1 1 1 0 0 0 0 0 0 1 1 1 1 2 1 1 2 2 2 1 1 2 2 1 1 1 1 1 2 2 2 2 1 1 1 1 1 1 1 1 0 0 0 0
0 0 1 1 1 1 1 1 1 0 0 0 0 0 1 1 1 1 2 2 2 2 1 1 1 1 2 2 1 1 1 1 1 2 2 2 1 1 1 1 1 1 1 1 0 0 0 0 0
0 1 1 1 1 1 1 1 1 1 1 1 1 1 1 1 0 1 1 2 2 2 1 1 1 1 2 2 1 1 1 1 1 1 1 1 1 1 1 1 0 0 0 0 0 0 0 0 0
1 1 1 1 1 1 1 1 1 1 1 1 1 1 1 1 1 1 1 1 2 2 1 1 1 1 2 2 1 1 1 1 1 1 1 1 1 1 1 1 0 0 0 0 0 0 0 0 0
1 1 1 1 1 1 1 1 1 1 1 1 2 2 1 1 1 1 1 1 2 2 2 1 1 1 1 2 1 1 1 1 1 1 1 1 1 1 1 1 0 0 0 0 0 0 0 0 0
1 1 1 1 1 1 1 1 1 1 1 1 1 1 1 1 1 1 1 1 2 2 2 2 2 1 1 2 1 1 1 1 1 1 1 1 1 1 1 0 0 0 0 0 0 0 0 0 0
1 1 1 1 1 1 1 1 1 1 1 1 1 1 1 1 1 1 1 1 2 3 3 2 2 2 1 2 1 1 1 1 1 1 1 1 1 1 1 0 0 0 0 0 0 0 0 0 0
0 0 0 0 0 1 1 1 1 1 1 1 1 1 1 1 1 1 1 1 1 2 3 3 2 2 2 2 1 1 1 1 1 1 0 0 0 0 0 0 0 0 0 0 0 0 0 0 0
0 0 0 0 0 0 1 1 1 1 2 2 1 1 1 1 1 1 1 1 1 2 4 4 3 2 2 2 1 1 1 1 1 1 1 1 1 0 0 0 0 0 0 0 0 0 0 0 0
0 0 0 0 0 0 1 1 1 2 2 2 1 1 1 1 1 1 1 1 1 2 4 4 3 2 2 2 1 1 1 1 1 1 1 1 1 1 1 1 0 0 0 0 0 0 0 0 0
0 0 0 0 0 0 1 1 1 2 1 1 1 1 1 1 1 1 1 1 1 2 4 5 4 2 2 2 2 2 1 1 2 2 1 1 1 1 1 1 1 1 1 0 0 0 0 0 0
0 0 0 0 0 0 0 1 1 1 1 1 1 1 1 1 1 1 1 1 1 2 4 5 4 3 3 3 3 2 2 2 2 2 1 1 1 1 1 1 1 1 1 1 0 0 0 0 0
0 0 0 0 0 0 0 0 1 1 1 1 1 1 0 1 1 1 1 1 1 2 3 5 6 5 4 4 4 3 3 2 2 1 1 1 1 1 1 1 1 1 1 0 0 0 0 0 0
0 0 0 0 0 0 0 0 0 1 1 1 1 0 0 1 1 1 1 1 2 2 3 5 7 7 6 5 4 4 3 3 2 1 1 1 1 1 1 1 1 1 1 0 0 0 0 0 0
0 0 0 0 0 0 0 0 0 0 1 0 0 0 0 1 1 1 1 1 2 2 2 4 7 8 7 5 4 4 3 3 2 2 1 1 1 1 1 1 1 1 0 0 0 0 0 0 0
0 0 0 0 0 0 0 0 0 0 0 0 0 0 0 1 1 1 1 1 2 2 2 3 6 8 7 5 4 4 3 3 2 2 1 1 1 1 1 1 1 1 0 0 1 1 1 1 1
0 0 0 0 0 0 0 0 0 0 0 0 0 0 0 1 1 1 1 2 2 2 2 3 5 6 6 6 5 4 3 3 2 2 2 1 1 1 1 1 1 1 1 1 1 1 1 1 1
0 0 0 0 0 0 0 0 0 0 0 0 0 0 1 1 1 1 1 2 2 2 3 3 3 4 5 5 5 4 4 3 2 2 2 1 1 1 1 1 1 1 1 1 1 1 2 2 2
0 0 0 0 0 0 0 0 0 0 1 0 0 0 1 1 1 1 2 2 2 2 3 3 3 3 3 4 5 4 4 3 2 2 2 2 1 1 1 1 1 1 1 1 1 1 2 2 2
0 0 0 0 0 0 0 0 0 0 1 0 0 0 1 1 1 1 2 2 2 2 2 3 3 3 3 3 4 4 4 3 2 2 2 2 1 1 1 1 1 1 1 1 1 1 2 2 2
0 0 0 0 0 0 0 0 0 0 0 0 0 0 0 1 1 1 2 2 1 1 1 2 2 3 3 3 3 4 4 4 3 2 2 2 2 1 1 1 1 0 0 0 1 1 1 1 2
0 0 0 0 0 0 0 0 0 0 0 0 0 0 0 1 1 1 2 1 1 1 1 1 2 2 3 3 3 4 5 4 3 2 2 2 2 2 1 1 1 0 0 0 0 1 1 1 1
Wind_Speed
10 11 7 2 2 0 4 5 7 5 7 8 8 9 12 13 9 8 2 5 7 9 9 9 10 10 10 11 11 11 12 12 11 11 11 11 11 11 11 11 12 12 12 12 12 12 12 12 12
11 6 3 2 2 2 4 6 8 8 7 5 7 11 13 12 11 8 4 5 8 9 9 9 10 10 10 10 10 11 11 11 11 11 11 10 10 11 11 11 12 12 12 12 12 11 12 12 12
13 7 3 2 1 3 5 7 7 8 6 6 8 11 10 8 9 6 5 7 9 10 10 9 10 10 10 10 10 10 11 11 11 10 10 10 11 11 11 11 11 11 11 12 11 11 12 12 11
6 3 3 0 3 6 6 6 6 7 6 6 8 9 10 8 6 7 6 8 9 10 11 9 10 10 10 10 10 10 10 10 10 10 10 10 11 11 11 11 12 11 11 11 11 11 11 11 10
3 2 1 1 4 6 7 7 5 6 6 8 11 11 10 8 9 9 6 8 9 9 10 10 10 10 10 10 10 9 9 9 10 10 10 11 11 11 11 12 12 12 11 11 10 10 10 10 9
2 2 1 2 5 6 6 5 5 6 7 8 11 10 8 7 7 6 7 6 8 9 10 10 10 10 10 10 9 9 9 9 9 9 10 10 10 11 11 12 11 11 11 10 10 9 9 8 8
2 1 1 3 4 5 5 4 5 5 6 5 7 9 8 7 6 6 6 6 6 7 7 8 9 9 10 10 9 9 9 8 8 8 8 9 9 10 11 11 11 11 10 9 9 9 8 7 6
2 1 1 3 4 4 4 4 4 6 6 4 5 7 7 8 7 6 6 5 5 6 5 6 7 8 8 7 8 8 8 7 6 6 7 7 8 9 10 10 10 10 9 8 7 7 6 6 5
3 1 0 2 3 4 4 4 5 5 6 6 8 11 11 11 9 7 5 5 4 5 4 5 5 6 6 6 8 7 7 6 5 4 5 4 3 4 5 8 8 8 7 6 5 4 4 3 2
1 0 1 2 4 4 4 4 4 4 6 7 9 11 10 9 8 7 6 6 5 4 4 4 4 5 5 4 5 3 4 4 3 3 4 2 3 3 5 7 6 5 5 4 3 2 2 1 0
1 1 2 4 5 3 4 4 3 2 4 6 7 10 9 8 7 6 6 5 5 5 4 4 4 4 4 3 3 2 2 2 2 3 4 3 3 3 3 2 2 3 3 1 1 1 1 1 2
1 2 2 3 3 2 3 3 3 2 4 6 8 9 8 6 6 6 5 5 6 5 4 3 4 4 4 4 3 3 2 1 2 2 3 3 2 2 2 2 1 1 1 1 1 1 2 2 2
2 2 2 2 2 1 2 3 3 3 3 5 8 8 6 6 6 5 4 5 6 6 5 4 3 4 4 4 3 3 2 2 2 1 2 3 2 2 2 2 1 1 1 1 1 2 3 3 3
2 2 2 2 2 2 2 1 1 2 3 4 6 6 6 5 5 5 5 5 6 6 5 5 4 3 4 4 3 3 2 2 2 1 2 3 3 2 2 2 2 1 1 1 1 2 2 2 2
3 3 3 3 3 3 1 1 2 3 4 4 5 5 6 5 4 4 5 5 5 5 5 5 4 4 3 4 3 3 2 3 2 2 2 3 3 3 3 2 2 2 2 3 2 3 2 2 2
6 5 4 4 4 4 3 2 2 4 5 4 5 5 5 5 5 4 4 4 4 5 6 6 4 4 3 4 3 2 2 3 2 2 2 3 3 4 3 2 2 2 2 2 2 2 2 2 2
6 5 4 4 5 4 5 3 4 4 5 5 5 6 6 6 5 4 4 4 4 5 5 6 5 4 3 4 2 2 2 2 2 2 2 2 3 4 3 2 1 3 2 2 2 2 2 2 2
4 3 3 4 4 4 4 4 6 6 5 5 5 5 6 6 7 6 5 5 4 5 5 5 5 4 4 3 2 2 2 2 2 2 2 2 2 3 3 2 2 3 2 1 1 2 1 1 0
4 4 4 3 3 4 5 5 6 7 5 5 5 5 6 6 7 7 6 5 4 4 4 5 5 4 4 2 2 2 1 1 2 2 2 2 2 3 3 2 2 2 2 1 1 1 2 1 1
4 5 5 4 2 3 5 7 5 7 7 5 5 5 6 7 7 7 6 5 4 4 4 4 4 4 4 3 2 2 2 1 2 1 2 1 2 2 2 2 1 2 2 1 1 2 1 1 2
6 6 5 5 4 7 7 7 5 6 6 5 5 5 5 6 7 8 7 6 4 3 3 3 4 5 5 4 2 2 2 1 2 1 1 1 1 2 1 1 1 1 1 1 1 1 1 1 2
5 4 6 7 6 5 5 4 4 5 6 7 6 6 5 5 6 7 7 7 6 4 3 3 4 4 4 4 3 3 2 1 2 1 1 1 1 2 1 1 1 1 1 1 1 1 1 0 1
4 5 7 9 7 7 8 6 3 5 6 6 6 6 5 5 6 7 7 7 6 5 4 3 4 4 4 4 4 3 2 2 1 2 2 1 1 1 1 0 0 0 0 1 1 1 1 0 0
5 7 9 9 7 8 8 6 2 3 4 5 5 6 6 6 6 6 7 6 6 5 4 4 4 4 4 4 4 4 3 2 2 2 2 1 1 1 2 1 1 1 0 1 1 1 1 0 0
6 5 4 5 6 5 4 4 2 3 3 3 4 4 6 7 7 7 7 7 6 6 5 4 4 4 4 4 4 4 3 3 2 2 2 2 1 1 2 2 2 1 1 1 1 1 1 1 1
6 6 4 4 3 3 3 3 2 5 4 3 3 3 4 5 5 7 7 7 7 7 6 5 5 4 4 4 4 3 4 2 2 3 2 3 2 2 2 2 2 2 2 1 1 1 1 1 2
6 5 6 6 8 6 4 3 3 5 4 3 3 3 3 4 5 5 7 7 6 7 6 6 5 4 4 4 3 3 3 2 2 2 2 2 2 2 2 3 3 2 2 2 2 1 2 1 1
8 6 4 4 4 5 4 3 2 4 2 2 3 3 2 2 4 5 5 6 6 6 5 6 5 5 4 3 3 2 2 2 2 2 2 2 3 3 3 2 3 3 3 3 2 2 1 1 1
6 7 6 4 5 4 3 1 3 4 2 2 1 1 2 2 3 4 4 4 4 4 5 5 5 4 3 3 3 3 2 2 2 2 2 2 2 2 3 3 2 3 3 3 2 2 2 2 2
7 7 6 4 5 5 4 2 2 3 2 2 1 1 2 3 2 2 4 4 4 4 4 4 3 4 3 3 3 2 2 2 2 2 2 2 2 2 2 2 3 3 2 2 3 3 3 3 3
Wind_Direction
265 246 240 254 269 145 69 80 82 67 58 51 52 61 63 52 53 83 110 84 90 92 93 84 75 73 72 72 68 65 64 63 65 66 68 70 73 75 75 76 76 75 74 73 71 68 67 67 64
277 261 270 245 249 90 79 81 78 68 68 61 60 64 68 62 71 95 106 95 95 93 89 85 83 78 75 73 71 70 69 67 65 66 70 73 75 76 76 77 79 78 76 74 72 70 68 66 62
266 267 264 261 39 79 85 83 88 85 79 76 72 62 55 63 71 96 114 109 96 93 91 89 86 82 78 75 73 75 73 71 70 70 71 75 77 76 76 77 80 79 76 73 73 73 70 66 62
258 256 247 347 62 70 87 91 92 95 75 71 79 75 69 62 82 100 111 106 98 99 100 98 94 90 86 81 78 78 76 74 74 76 75 76 77 78 77 78 78 75 73 72 72 72 70 67 63
255 258 232 104 80 74 74 79 85 92 87 77 82 86 85 75 90 102 104 101 104 104 108 109 105 101 96 90 84 81 79 76 78 79 78 77 80 81 79 78 76 73 71 71 71 71 70 66 61
257 257 222 120 99 84 78 83 81 81 88 90 99 100 95 104 98 100 96 93 102 109 114 118 117 110 102 95 90 87 85 83 82 81 80 80 81 82 82 81 78 77 76 75 72 70 69 67 60
284 288 189 112 99 90 79 64 70 75 75 72 96 102 111 108 107 108 104 101 101 106 115 130 133 124 112 106 103 97 93 90 90 90 88 88 88 86 83 81 78 75 75 75 75 72 68 68 64
282 282 197 114 112 96 82 81 82 81 80 68 83 102 122 128 129 117 107 102 107 109 114 122 132 135 133 127 120 118 115 110 106 107 105 102 101 99 92 86 84 82 81 80 80 78 69 64 66
273 260 111 102 113 116 112 98 82 81 90 78 75 94 115 130 130 127 120 112 105 101 110 108 116 120 125 128 129 138 140 135 132 133 123 113 112 109 98 94 93 89 88 86 82 80 81 69 60
217 123 99 85 94 112 123 111 108 107 102 95 94 103 121 134 138 141 132 128 122 116 101 102 110 118 120 119 134 148 143 148 154 133 126 114 98 96 99 112 108 105 97 87 83 80 83 76 54
160 142 60 69 81 102 108 107 110 119 110 114 122 126 133 141 146 140 137 136 128 119 110 105 104 109 111 115 128 124 119 133 133 124 121 113 108 113 110 120 120 124 123 106 105 71 340 37 57
155 103 79 80 87 95 97 103 87 59 86 105 114 126 138 151 141 133 137 134 123 119 110 98 99 98 100 102 108 116 116 113 101 99 106 102 100 101 101 97 101 109 99 76 63 42 33 33 51
173 129 123 122 119 103 80 91 95 71 73 106 123 132 142 145 137 132 135 126 129 124 123 107 88 94 96 95 106 109 113 115 110 89 109 111 108 113 111 100 90 72 72 71 52 52 47 37 34
144 131 160 170 152 142 145 149 126 123 122 126 134 143 151 147 147 146 147 137 132 131 129 117 107 98 99 105 98 100 104 98 98 97 96 100 97 101 102 100 89 77 66 59 61 66 61 57 46
188 184 198 202 193 180 183 235 172 161 154 149 156 156 148 146 151 152 142 138 136 131 125 119 121 105 98 97 97 99 101 99 97 94 93 94 91 89 89 83 79 71 63 52 41 43 38 57 64
207 210 207 193 194 187 206 232 183 160 173 179 176 159 151 152 161 152 147 136 130 125 126 124 126 115 106 99 96 96 96 96 93 81 78 91 92 81 81 82 79 75 65 59 52 43 37 32 46
218 220 210 197 197 194 206 215 201 184 190 190 182 168 168 162 164 156 144 137 135 135 135 132 126 123 114 107 107 93 95 93 94 87 74 78 93 96 87 77 80 75 69 58 49 56 38 43 45
236 224 217 222 203 211 225 221 194 192 206 198 195 180 171 175 169 157 147 138 142 140 133 130 129 134 121 112 103 78 77 80 83 83 77 56 74 97 102 94 84 80 74 69 67 73 30 25 347
274 274 266 258 216 246 253 248 211 185 202 207 201 189 185 182 161 152 147 145 145 136 139 139 137 134 119 106 103 103 93 85 84 87 86 61 60 73 89 86 76 83 81 66 52 62 36 353 357
264 271 266 265 260 259 267 259 226 187 196 202 208 201 193 174 160 147 150 147 149 142 149 144 137 132 123 123 123 124 128 116 101 85 82 70 67 69 75 99 99 95 92 65 55 58 36 339 355
248 257 265 269 268 254 263 264 240 187 185 189 210 212 203 178 170 160 157 148 151 149 150 143 140 134 131 129 117 100 89 75 82 87 93 78 78 80 67 64 86 105 116 116 104 98 90 343 324
269 281 283 275 268 266 251 271 235 187 182 187 197 205 200 180 169 158 153 157 158 155 145 147 141 139 135 134 130 136 141 167 166 153 152 175 133 104 80 68 77 91 101 114 187 102 103 72 316
289 289 275 272 269 269 257 258 240 179 189 188 187 188 186 173 164 162 158 156 153 150 149 152 146 139 138 142 150 171 166 180 157 141 136 134 130 132 142 142 110 120 123 144 134 97 97 162 234
288 277 267 254 259 255 248 245 252 196 192 185 180 177 175 170 159 158 155 147 148 147 149 154 152 145 151 163 170 184 173 169 147 141 144 163 164 170 178 186 189 176 164 173 153 127 171 215 267
250 266 271 236 226 244 243 239 224 155 151 154 163 180 175 170 165 158 151 152 153 153 156 157 148 150 160 175 180 176 171 170 169 172 167 168 178 184 202 185 193 193 200 191 146 144 212 213 220
250 257 272 293 288 300 273 243 123 111 107 111 132 169 170 162 162 160 153 156 159 158 161 161 166 169 173 186 179 176 170 173 187 194 180 178 189 194 198 191 197 203 194 191 170 195 226 216 218
261 252 268 281 285 278 235 181 153 126 133 139 146 152 155 157 150 151 154 158 159 162 164 165 168 168 179 188 179 180 173 182 196 201 196 184 191 198 203 199 197 194 192 190 182 202 227 230 243
256 277 273 261 281 276 269 260 177 136 107 127 154 155 134 142 148 149 156 160 162 164 167 168 174 175 176 177 176 178 181 191 197 205 206 198 198 195 200 205 193 190 191 187 186 196 228 206 241
237 248 256 261 263 277 287 329 70 111 105 109 100 122 138 123 147 150 153 156 156 157 160 168 173 173 173 180 186 185 184 196 204 207 215 212 212 204 191 193 195 199 193 189 181 196 215 221 235
256 258 264 267 273 281 283 282 108 119 94 62 59 79 114 115 118 141 153 156 156 161 163 169 177 179 177 184 189 182 193 193 202 225 225 210 216 224 214 203 194 200 200 191 183 201 210 216 223